Hereford, TX

3:31 AM CDT on August 25, 2016 (GMT -0500)
Hereford Municipal

Weather History for KHRX - May, 2013

Change the Weather History Date:

Wednesday, May 22, 2013

  Actual Average (KAMA) Record (KAMA)
Temperature  
Mean Temperature 72 °F 67 °F  
Max Temperature 91 °F 81 °F 101 °F (1996)
Min Temperature 52 °F 54 °F 37 °F (1931)
Degree Days  
Heating Degree Days 0 2  
Month to date heating degree days 72  
Since 1 July heating degree days 4160  
Cooling Degree Days 6 4  
Month to date cooling degree days 57  
Year to date cooling degree days 78  
Growing Degree Days 22 (Base 50)    
Moisture  
Dew Point 39 °F    
Average Humidity 40    
Maximum Humidity 76    
Minimum Humidity 8    
Precipitation  
Precipitation 0.00 in 0.09 in 1.81 in (1908)
Month to date precipitation 1.41  
Year to date precipitation 5.48  
Snow  
Snow 0.00 in 0.00 in T in (1991)
Month to date snowfall 0.2  
Since 1 July snowfall 17.8  
Snow Depth -    
Sea Level Pressure  
Sea Level Pressure 29.92 in    
Wind  
Wind Speed 10 mph (South)    
Max Wind Speed 22 mph    
Max Gust Speed 30 mph    
Visibility 10 miles    
Events      
T = Trace of Precipitation, MM = Missing Value Source: NWS Daily Summary

Daily Weather History Graph

Daily Weather History Graph

Search for Another Location

Airport or City:

Trip Planner

Search our weather history database for the weather conditions in past years. The results will help you decide how hot, cold, wet, or windy it might be!

Date:

Astronomy

May. 22, 2013 Rise Set
Actual Time 6:41 AM CDT 8:51 PM CDT
Civil Twilight 6:12 AM CDT 9:19 PM CDT
Nautical Twilight 5:37 AM CDT 9:54 PM CDT
Astronomical Twilight 5:00 AM CDT 10:32 PM CDT
Moon 6:20 PM CDT (5/22) 4:40 AM CDT (5/22)
Length of Visible Light 15h 07m
Length of Day
14h 09m
Waxing Gibbous, 91% of the Moon is Illuminated
May 22
Waxing Gibbous
May 24
Full
May 31
Last Quarter
Jun 8
New
Jun 16
First Quarter

Hourly Weather History & Observations

Time (CDT) Temp. Dew Point Humidity Pressure Visibility Wind Dir Wind Speed Gust Speed Precip Events Conditions
12:15 AM 56.7 °F 45.1 °F 65% 29.94 in 10.0 mi ESE 8.1 mph - N/A   Clear
12:35 AM 56.3 °F 44.6 °F 65% 29.94 in 10.0 mi SSE 6.9 mph - N/A   Clear
12:55 AM 57.2 °F 44.2 °F 62% 29.94 in 10.0 mi SSE 6.9 mph - N/A   Clear
1:15 AM 56.5 °F 44.2 °F 64% 29.94 in 10.0 mi SE 6.9 mph - N/A   Clear
1:35 AM 56.3 °F 44.2 °F 64% 29.94 in 10.0 mi South 9.2 mph - N/A   Clear
1:55 AM 55.4 °F 44.1 °F 66% 29.95 in 10.0 mi South 6.9 mph - N/A   Clear
2:15 AM 55.6 °F 43.5 °F 64% 29.95 in 10.0 mi South 5.8 mph - N/A   Clear
2:35 AM 55.4 °F 43.2 °F 63% 29.95 in 10.0 mi South 10.4 mph - N/A   Clear
2:55 AM 54.7 °F 43.3 °F 66% 29.95 in 10.0 mi South 8.1 mph - N/A   Clear
3:15 AM 53.6 °F 43.3 °F 68% 29.95 in 10.0 mi SSW 6.9 mph - N/A   Clear
3:35 AM 52.9 °F 43.5 °F 71% 29.95 in 10.0 mi SSW 5.8 mph - N/A   Clear
3:55 AM 53.4 °F 44.2 °F 71% 29.95 in 10.0 mi SSW 8.1 mph - N/A   Clear
4:15 AM 53.2 °F 44.6 °F 72% 29.95 in 10.0 mi SSW 5.8 mph - N/A   Clear
4:35 AM 52.7 °F 44.6 °F 74% 29.95 in 10.0 mi SSW 8.1 mph - N/A   Clear
4:55 AM 52.7 °F 44.6 °F 74% 29.95 in 10.0 mi SSW 9.2 mph - N/A   Clear
5:15 AM 52.2 °F 44.8 °F 76% 29.95 in 10.0 mi SSW 8.1 mph - N/A   Clear
5:35 AM 52.0 °F 44.8 °F 76% 29.95 in 10.0 mi South 6.9 mph - N/A   Clear
5:55 AM 52.7 °F 44.8 °F 74% 29.95 in 10.0 mi SSW 8.1 mph - N/A   Clear
6:15 AM 52.2 °F 44.6 °F 75% 29.95 in 10.0 mi South 6.9 mph - N/A   Clear
6:35 AM 52.2 °F 44.2 °F 74% 29.96 in 10.0 mi South 5.8 mph - N/A   Clear
6:55 AM 52.2 °F 44.4 °F 75% 29.97 in 10.0 mi South 5.8 mph - N/A   Clear
7:15 AM 52.9 °F 44.6 °F 73% 29.98 in 10.0 mi South 5.8 mph - N/A   Clear
7:35 AM 54.5 °F 45.7 °F 72% 29.99 in 10.0 mi South 4.6 mph - N/A   Clear
7:55 AM 57.6 °F 45.3 °F 64% 29.99 in 10.0 mi SSE 6.9 mph - N/A   Clear
8:15 AM 59.2 °F 45.5 °F 60% 29.99 in 10.0 mi South 10.4 mph - N/A   Clear
8:35 AM 61.3 °F 45.5 °F 56% 29.99 in 10.0 mi South 11.5 mph - N/A   Clear
8:55 AM 63.7 °F 45.5 °F 52% 30.00 in 10.0 mi South 12.7 mph 17.3 mph N/A   Clear
9:15 AM 64.4 °F 45.5 °F 50% 30.00 in 10.0 mi South 12.7 mph - N/A   Clear
9:35 AM 64.4 °F 44.4 °F 48% 30.00 in 10.0 mi SSW 15.0 mph 20.7 mph N/A   Clear
9:55 AM 67.1 °F 44.2 °F 44% 30.00 in 10.0 mi South 18.4 mph 24.2 mph N/A   Clear
10:15 AM 68.7 °F 43.7 °F 40% 30.00 in 10.0 mi South 18.4 mph 24.2 mph N/A   Clear
10:35 AM 70.0 °F 42.8 °F 37% 30.00 in 10.0 mi South 20.7 mph 25.3 mph N/A   Clear
10:55 AM 72.1 °F 42.1 °F 34% 30.00 in 10.0 mi South 19.6 mph 24.2 mph N/A   Clear
11:15 AM 72.5 °F 42.4 °F 34% 30.00 in 10.0 mi South 17.3 mph 24.2 mph N/A   Clear
11:35 AM 74.5 °F 42.4 °F 32% 29.99 in 10.0 mi SSW 20.7 mph 27.6 mph N/A   Clear
11:55 AM 75.9 °F 42.1 °F 30% 29.98 in 10.0 mi SSW 19.6 mph 27.6 mph N/A   Clear
12:15 PM 76.5 °F 42.1 °F 29% 29.97 in 10.0 mi South 21.9 mph 26.5 mph N/A   Clear
12:35 PM 77.2 °F 41.9 °F 28% 29.97 in 10.0 mi South 18.4 mph 27.6 mph N/A   Clear
12:55 PM 79.7 °F 42.1 °F 26% 29.96 in 10.0 mi South 18.4 mph 23.0 mph N/A   Clear
1:15 PM 79.7 °F 40.3 °F 24% 29.95 in 10.0 mi SSW 17.3 mph 27.6 mph N/A   Clear
1:35 PM 81.9 °F 39.6 °F 22% 29.94 in 10.0 mi SSW 20.7 mph 28.8 mph N/A   Clear
1:55 PM 83.1 °F 38.1 °F 20% 29.93 in 10.0 mi SSW 19.6 mph 29.9 mph N/A   Clear
2:15 PM 84.2 °F 38.8 °F 20% 29.92 in 10.0 mi South 20.7 mph 24.2 mph N/A   Clear
2:35 PM 84.6 °F 38.1 °F 19% 29.91 in 10.0 mi South 16.1 mph 26.5 mph N/A   Clear
2:55 PM 86.7 °F 35.4 °F 16% 29.90 in 10.0 mi SW 13.8 mph 23.0 mph N/A   Clear
3:15 PM 88.3 °F 33.8 °F 14% 29.89 in 10.0 mi SSW 18.4 mph 28.8 mph N/A   Clear
3:35 PM 88.5 °F 32.4 °F 13% 29.87 in 10.0 mi SSW 13.8 mph 23.0 mph N/A   Clear
3:55 PM 89.1 °F 32.0 °F 13% 29.87 in 10.0 mi South 11.5 mph 23.0 mph N/A   Clear
4:15 PM 89.1 °F 30.7 °F 12% 29.86 in 10.0 mi SW 10.4 mph - N/A   Clear
4:35 PM 90.5 °F 29.7 °F 11% 29.85 in 10.0 mi SSW 10.4 mph - N/A   Clear
4:55 PM 90.3 °F 30.0 °F 12% 29.84 in 10.0 mi South 15.0 mph 19.6 mph N/A   Clear
5:15 PM 90.5 °F 28.9 °F 11% 29.82 in 10.0 mi SSW 8.1 mph - N/A   Clear
5:35 PM 91.6 °F 26.1 °F 9% 29.82 in 10.0 mi WSW 8.1 mph - N/A   Clear
5:55 PM 91.2 °F 25.3 °F 9% 29.82 in 10.0 mi SW 16.1 mph - N/A   Clear
6:15 PM 91.2 °F 24.1 °F 9% 29.81 in 10.0 mi West 4.6 mph - N/A   Clear
6:35 PM 91.0 °F 23.0 °F 8% 29.81 in 10.0 mi SW 11.5 mph - N/A   Clear
6:55 PM 90.7 °F 22.5 °F 8% 29.81 in 10.0 mi North - - N/A   Clear
7:15 PM 90.5 °F 21.7 °F 8% 29.81 in 10.0 mi WSW 8.1 mph - N/A   Clear
7:35 PM 89.8 °F 22.1 °F 9% 29.81 in 10.0 mi West 10.4 mph - N/A   Clear
7:55 PM 88.7 °F 23.7 °F 9% 29.82 in 10.0 mi SW 3.5 mph - N/A   Clear
8:15 PM 86.9 °F 26.6 °F 11% 29.82 in 10.0 mi Calm Calm - N/A   Clear
8:35 PM 85.3 °F 26.2 °F 12% 29.83 in 10.0 mi Calm Calm - N/A   Clear
8:55 PM 81.5 °F 30.0 °F 15% 29.84 in 10.0 mi SE 3.5 mph - N/A   Clear
9:15 PM 78.4 °F 31.5 °F 18% 29.84 in 10.0 mi ESE 5.8 mph - N/A   Clear
9:35 PM 74.1 °F 33.1 °F 22% 29.84 in 10.0 mi ESE 8.1 mph - N/A   Clear
9:55 PM 71.1 °F 36.9 °F 29% 29.84 in 10.0 mi ESE 6.9 mph - N/A   Clear
10:15 PM 70.7 °F 38.1 °F 30% 29.85 in 10.0 mi ESE 6.9 mph - N/A   Clear
10:35 PM 66.0 °F 41.5 °F 41% 29.85 in 10.0 mi East 6.9 mph - N/A   Clear
10:55 PM 65.1 °F 39.6 °F 39% 29.86 in 10.0 mi East 10.4 mph - N/A   Clear
11:15 PM 65.3 °F 39.0 °F 38% 29.87 in 10.0 mi East 10.4 mph - N/A   Clear
11:35 PM 64.4 °F 39.4 °F 40% 29.87 in 10.0 mi ESE 16.1 mph 21.9 mph N/A   Clear
11:55 PM 69.1 °F 38.1 °F 32% 29.88 in 10.0 mi ESE 15.0 mph - N/A   Clear